Weather in Portaria

Greece     39°23′19″N   22°59′57″E
temp.,
°C
wind,
m/s
gust,
m/s
humid.,
%
clouds,
%
prec.,
mm/h
press.,
hPa
HPBL,
m
28 january, thu
thu2823:00+3nnw666239 0.4 1012720
02:00+2nw226028 0.4 1012421
05:00+2nw235633 0.0 1012568
08:00+2nnw346238 0.1 1013674
11:00+4nnw445014 0.1 10141337
14:00+5nnw34387 0.1 10141633
17:00+5wsw22460 0.0 1014550
20:00+4sw23420 0.0 1015223
29 january, fri
fri2923:00+4sw44470 0.0 1016252
02:00+4sw444723 0.0 1015146
05:00+4sw5649100 0.0 1015243
08:00+4wsw6753100 0.0 1014236
11:00+8wsw56530 0.0 1014280
14:00+10wsw12590 0.0 1011379
17:00+8ssw1269100 0.0 1010115
20:00+9sw3468100 0.0 1009108
30 january, sat
sat3023:00+8sw5574100 0.0 1007108
02:00+9sw4577100 0.0 1003125
05:00+9se2389100 0.7 999157
08:00+8wsw128979 1.4 997106
11:00+8nnw569295 0.2 999373
14:00+9nw348793 0.3 1000315
17:00+11nw126828 0.0 1004283
20:00+9s126714 0.0 100673
31 january, sun
sun3123:00+9sw336734 0.0 100758
02:00+9sw447726 0.0 100793
05:00+9sw45800 0.0 1005106
08:00+8sw557749 0.0 1005112
11:00+10sw3470100 0.0 1003179
14:00+12sse3467100 0.0 1000201
17:00+12s6116999 0.0 997345
20:00+12sw5127975 0.2 999523
1 february, mon
mon123:00+11sw8147512 0.1 1001638
02:00+10sw611706 0.1 1001503
05:00+9sw59700 0.0 1001564
08:00+9ssw59700 0.0 1003490
11:00+12s476842 0.0 1004541
14:00+14ssw476521 0.0 1003696
17:00+13w137610 0.1 100476
20:00+11ssw237834 0.1 100635